H1 CPF 2 NER 2025 9 5 9 248 01 glonass132 H2 1401201 9132 39620 2025 9 5 0 0 0 2025 9 8 23 45 0 900 1 1 0 0 0 1 H9 10 0 60923 0.00000 0 20728130.028 -12054175.748 -8631583.676 10 0 60923 900.00000 0 21469450.428 -12561334.578 -5550645.712 10 0 60923 1800.00000 0 21825571.048 -12949681.421 -2361595.377 10 0 60923 2700.00000 0 21810430.712 -13163644.863 873444.086 10 0 60923 3600.00000 0 21450591.584 -13152983.171 4091479.154 10 0 60923 4500.00000 0 20783974.069 -12875120.275 7229883.761 10 0 60923 5400.00000 0 19858130.658 -12297165.740 10227626.884 10 0 60923 6300.00000 0 18728133.431 -11397532.566 13026465.034 10 0 60923 7200.00000 0 17454166.010 -10167084.106 15572075.697 10 0 60923 8100.00000 0 16098922.935 -8609761.667 17815109.490 10 0 60923 9000.00000 0 14724926.888 -6742666.565 19712140.858 10 0 60923 9900.00000 0 13391877.059 -4595593.459 21226499.559 10 0 60923 10800.00000 0 12154139.835 -2210034.809 22328967.939 10 0 60923 11700.00000 0 11058486.333 362301.839 22998331.897 10 0 60923 12600.00000 0 10142170.364 3061401.979 23221776.345 10 0 60923 13500.00000 0 9431425.721 5821198.729 22995118.994 10 0 60923 14400.00000 0 8940443.937 8572080.985 22322879.240 10 0 60923 15300.00000 0 8670873.531 11243552.119 21218181.760 10 0 60923 16200.00000 0 8611860.188 13766930.364 19702497.323 10 0 60923 17100.00000 0 8740624.932 16077980.469 17805225.965 10 0 60923 18000.00000 0 9023555.289 18119369.081 15563130.400 10 0 60923 18900.00000 0 9417763.312 19842843.499 13019630.061 10 0 60923 19800.00000 0 9873045.084 21211044.724 10223968.602 10 0 60923 20700.00000 0 10334159.706 22198880.483 7230270.040 10 0 60923 21600.00000 0 10743332.425 22794401.892 4096500.780 10 0 60923 22500.00000 0 11042877.052 22999147.710 883356.697 10 0 60923 23400.00000 0 11177827.639 22827941.970 -2346903.991 10 0 60923 24300.00000 0 11098468.636 22308153.399 -5531660.082 10 0 60923 25200.00000 0 10762656.726 21478447.335 -8609136.223 10 0 60923 26100.00000 0 10137835.832 20387082.021 -11519597.990 10 0 60923 27000.00000 0 9202659.392 19089820.239 -14206510.190 10 0 60923 27900.00000 0 7948150.085 17647543.408 -16617635.872 10 0 60923 28800.00000 0 6378346.411 16123667.871 -18706054.545 10 0 60923 29700.00000 0 4510406.798 14581471.498 -20431079.635 10 0 60923 30600.00000 0 2374164.540 13081442.639 -21759057.045 10 0 60923 31500.00000 0 11149.869 11678762.711 -22664028.872 10 0 60923 32400.00000 0 -2526882.247 10421028.223 -23128248.930 10 0 60923 33300.00000 0 -5179859.099 9346308.126 -23142539.406 10 0 60923 34200.00000 0 -7881654.157 8481618.475 -22706481.033 10 0 60923 35100.00000 0 -10562614.760 7841878.896 -21828432.255 10 0 60923 36000.00000 0 -13152249.030 7429395.138 -20525376.154 10 0 60923 36900.00000 0 -15581960.288 7233889.812 -18822597.285 10 0 60923 37800.00000 0 -17787714.845 7233080.162 -16753193.957 10 0 60923 38700.00000 0 -19712531.437 7393778.374 -14357434.891 10 0 60923 39600.00000 0 -21308687.669 7673467.598 -11681972.503 10 0 60923 40500.00000 0 -22539550.612 8022286.304 -8778928.236 10 0 60923 41400.00000 0 -23380954.429 8385335.940 -5704868.150 10 0 60923 42300.00000 0 -23822067.137 8705212.859 -2519689.625 10 0 60923 43200.00000 0 -23865710.411 8924655.700 714558.018 10 0 60923 44100.00000 0 -23528119.762 8989194.470 3934894.660 10 0 60923 45000.00000 0 -22838156.395 8849687.558 7078647.035 10 0 60923 45900.00000 0 -21836005.513 8464637.955 10084677.459 10 0 60923 46800.00000 0 -20571417.632 7802189.645 12894578.648 10 0 60923 47700.00000 0 -19101568.707 6841719.178 15453810.608 10 0 60923 48600.00000 0 -17488630.712 5574954.961 17712757.234 10 0 60923 49500.00000 0 -15797155.954 4006577.127 19627682.387 10 0 60923 50400.00000 0 -14091385.664 2154272.980 21161567.511 10 0 60923 51300.00000 0 -12432595.817 48245.932 22284815.726 10 0 60923 52200.00000 0 -10876590.799 -2269801.337 22975810.133 10 0 60923 53100.00000 0 -9471448.709 -4748167.040 23221316.990 10 0 60923 54000.00000 0 -8255610.982 -7327071.530 23016727.490 10 0 60923 54900.00000 0 -7256394.304 -9940920.342 22366134.732 10 0 60923 55800.00000 0 -6488985.001 -12520815.892 21282245.396 10 0 60923 56700.00000 0 -5955956.034 -14997214.784 19786128.457 10 0 60923 57600.00000 0 -5647325.102 -17302621.843 17906805.985 10 0 60923 58500.00000 0 -5541150.119 -19374210.522 15680693.743 10 0 60923 59400.00000 0 -5604636.237 -21156262.337 13150901.872 10 0 60923 60300.00000 0 -5795707.514 -22602325.265 10366408.346 10 0 60923 61200.00000 0 -6064977.179 -23677002.363 7381120.277 10 0 60923 62100.00000 0 -6358033.861 -24357296.869 4252840.213 10 0 60923 63000.00000 0 -6617947.909 -24633458.128 1042156.461 10 0 60923 63900.00000 0 -6787892.602 -24509293.091 -2188721.857 10 0 60923 64800.00000 0 -6813769.958 -24001930.180 -5377163.124 10 0 60923 65700.00000 0 -6646730.397 -23141044.929 -8461322.161 10 0 60923 66600.00000 0 -6245479.583 -21967579.266 -11381336.589 10 0 60923 67500.00000 0 -5578274.414 -20532007.353 -14080487.516 10 0 60923 68400.00000 0 -4624522.812 -18892219.986 -16506302.025 10 0 60923 69300.00000 0 -3375918.344 -17111115.560 -18611575.883 10 0 60923 70200.00000 0 -1837059.979 -15253998.027 -20355296.417 10 0 60923 71100.00000 0 -25528.730 -13385890.442 -21703447.306 10 0 60923 72000.00000 0 2028584.391 -11568876.432 -22629679.283 10 0 60923 72900.00000 0 4283681.702 -9859580.859 -23115833.181 10 0 60923 73800.00000 0 6688153.698 -8306895.258 -23152304.612 10 0 60923 74700.00000 0 9182304.901 -6950043.545 -22738242.428 10 0 60923 75600.00000 0 11700631.801 -5817069.318 -21881576.333 10 0 60923 76500.00000 0 14174358.932 -4923808.391 -20598872.232 10 0 60923 77400.00000 0 16534127.729 -4273389.918 -18915017.296 10 0 60923 78300.00000 0 18712726.024 -3856287.023 -16862740.108 10 0 60923 79200.00000 0 20647743.785 -3650914.600 -14481974.668 10 0 60923 80100.00000 0 22284043.426 -3624748.541 -11819080.358 10 0 60923 81000.00000 0 23575940.498 -3735918.323 -8925933.122 10 0 60923 81900.00000 0 24489002.691 -3935204.446 -5858905.970 10 0 60923 82800.00000 0 25001391.099 -4168354.787 -2677759.532 10 0 60923 83700.00000 0 25104687.311 -4378620.113 555534.621 10 0 60923 84600.00000 0 24804171.812 -4509399.599 3778013.629 10 0 60923 85500.00000 0 24118542.759 -4506882.554 6926960.760 10 0 60924 0.00000 0 23079088.239 -4322572.961 9941134.883 10 0 60924 900.00000 0 21728347.698 -3915588.597 12761968.586 10 0 60924 1800.00000 0 20118321.917 -3254636.908 15334706.798 10 0 60924 2700.00000 0 18308306.476 -2319583.414 17609468.928 10 0 60924 3600.00000 0 16362442.255 -1102546.562 19542210.008 10 0 60924 4500.00000 0 14347086.102 391526.968 21095564.489 10 0 60924 5400.00000 0 12328112.157 2144830.398 22239557.167 10 0 60924 6300.00000 0 10368256.408 4127209.491 22952168.821 10 0 60924 7200.00000 0 8524614.562 6297198.128 23219747.149 10 0 60924 8100.00000 0 6846396.174 8603533.667 23037256.507 10 0 60924 9000.00000 0 5373026.942 10987089.399 22408362.987 10 0 60924 9900.00000 0 4132676.199 13383144.339 21345354.171 10 0 60924 10800.00000 0 3141268.932 15723897.029 19868895.773 10 0 60924 11700.00000 0 2402021.537 17941120.127 18007630.083 10 0 60924 12600.00000 0 1905519.003 19968846.805 15797623.804 10 0 60924 13500.00000 0 1630328.951 21745978.637 13281675.419 10 0 60924 14400.00000 0 1544125.884 23218707.766 10508494.647 10 0 60924 15300.00000 0 1605278.048 24342653.493 7531768.960 10 0 60924 16200.00000 0 1764830.065 25084624.971 4409134.180 10 0 60924 17100.00000 0 1968798.126 25423936.826 1201068.113 10 0 60924 18000.00000 0 2160681.316 25353222.773 -2030272.158 10 0 60924 18900.00000 0 2284083.444 24878712.894 -5222247.468 10 0 60924 19800.00000 0 2285334.936 24019962.400 -8312945.544 10 0 60924 20700.00000 0 2116003.952 22809042.411 -11242378.562 10 0 60924 21600.00000 0 1735190.307 21289225.742 -13953646.177 10 0 60924 22500.00000 0 1111504.535 19513221.744 -16394041.476 10 0 60924 23400.00000 0 224647.390 17541033.194 -18516078.169 10 0 60924 24300.00000 0 -933478.435 15437524.109 -20278418.896 10 0 60924 25200.00000 0 -2358173.092 13269799.575 -21646686.309 10 0 60924 26100.00000 0 -4031888.107 11104506.690 -22594140.719 10 0 60924 27000.00000 0 -5924723.100 9005169.182 -23102210.715 10 0 60924 27900.00000 0 -7995452.144 7029666.977 -23160865.790 10 0 60924 28800.00000 0 -10193038.840 5227966.118 -22768823.070 10 0 60924 29700.00000 0 -12458578.485 3640194.099 -21933583.308 10 0 60924 30600.00000 0 -14727587.437 2295141.225 -20671294.614 10 0 60924 31500.00000 0 -16932544.752 1209250.926 -19006445.726 10 0 60924 32400.00000 0 -19005580.126 386141.247 -16971394.040 10 0 60924 33300.00000 0 -20881195.503 -183322.653 -14605737.015 10 0 60924 34200.00000 0 -22498905.795 -520408.594 -11955538.875 10 0 60924 35100.00000 0 -23805687.230 -657377.073 -9072427.721 10 0 60924 36000.00000 0 -24758129.697 -635869.892 -6012581.022 10 0 60924 36900.00000 0 -25324201.867 -504897.353 -2835620.065 10 0 60924 37800.00000 0 -25484554.347 -318510.868 396563.978 10 0 60924 38700.00000 0 -25233305.844 -133261.446 3621028.204 10 0 60924 39600.00000 0 -24578279.556 -5553.543 6775015.130 10 0 60924 40500.00000 0 -23540680.538 10991.912 9797183.421 10 0 60924 41400.00000 0 -22154228.706 -131947.772 12628807.122 10 0 60924 42300.00000 0 -20463785.294 -475112.066 15214919.231 10 0 60924 43200.00000 0 -18523531.852 -1049699.197 17505377.102 10 0 60924 44100.00000 0 -16394779.458 -1875817.942 19455829.154 10 0 60924 45000.00000 0 -14143500.902 -2961414.384 21028564.772 10 0 60924 45900.00000 0 -11837689.602 -4301718.442 22193232.004 10 0 60924 46800.00000 0 -9544655.459 -5879233.032 22927410.530 10 0 60924 47700.00000 0 -7328369.869 -7664265.957 23217030.310 10 0 60924 48600.00000 0 -5246969.262 -9615982.166 23056629.323 10 0 60924 49500.00000 0 -3350519.441 -11683932.597 22449446.744 10 0 60924 50400.00000 0 -1679131.782 -13809996.306 21407350.795 10 0 60924 51300.00000 0 -261507.525 -15930655.789 19950603.330 10 0 60924 52200.00000 0 886031.379 -17979511.790 18107465.930 10 0 60924 53100.00000 0 1759986.425 -19889934.155 15913654.970 10 0 60924 54000.00000 0 2369584.859 -21597739.580 13411655.665 10 0 60924 54900.00000 0 2736145.509 -23043785.960 10649907.565 10 0 60924 55800.00000 0 2891935.543 -24176376.156 7681876.293 10 0 60924 56700.00000 0 2878566.578 -24953371.609 4565028.495 10 0 60924 57600.00000 0 2744997.667 -25343927.922 1359728.833 10 0 60924 58500.00000 0 2545229.075 -25329779.822 -1871920.437 10 0 60924 59400.00000 0 2335783.818 -24906021.392 -5067275.498 10 0 60924 60300.00000 0 2173082.992 -24081348.190 -8164359.944 10 0 60924 61200.00000 0 2110825.612 -22877750.148 -11103063.499 10 0 60924 62100.00000 0 2197483.804 -21329666.973 -13826307.360 10 0 60924 63000.00000 0 2474019.584 -19482640.161 -16281153.519 10 0 60924 63900.00000 0 2971920.509 -17391516.841 -18419836.389 10 0 60924 64800.00000 0 3711638.279 -15118279.431 -20200696.449 10 0 60924 65700.00000 0 4701497.720 -12729590.830 -21588997.512 10 0 60924 66600.00000 0 5937123.944 -10294156.949 -22557611.279 10 0 60924 67500.00000 0 7401413.879 -7880016.089 -23087555.447 10 0 60924 68400.00000 0 9065055.479 -5551867.972 -23168374.296 10 0 60924 69300.00000 0 10887574.915 -3368553.733 -22798353.663 10 0 60924 70200.00000 0 12818869.634 -1380792.030 -21984565.352 10 0 60924 71100.00000 0 14801164.586 370734.113 -20742739.250 10 0 60924 72000.00000 0 16771310.632 1856859.712 -19096964.819 10 0 60924 72900.00000 0 18663329.360 3060927.457 -17079227.008 10 0 60924 73800.00000 0 20411097.671 3979243.376 -14728785.029 10 0 60924 74700.00000 0 21951059.021 4620979.844 -12091405.800 10 0 60924 75600.00000 0 23224846.765 5007530.875 -9218466.994 10 0 60924 76500.00000 0 24181708.360 5171348.022 -6165947.543 10 0 60924 77400.00000 0 24780627.457 5154307.505 -2993326.076 10 0 60924 78300.00000 0 24992053.725 5005679.319 237590.181 10 0 60924 79200.00000 0 24799166.994 4779786.215 3463881.906 10 0 60924 80100.00000 0 24198622.264 4533453.576 6622754.443 10 0 60924 81000.00000 0 23200744.502 4323360.083 9652769.397 10 0 60924 81900.00000 0 21829165.647 4203402.941 12495045.945 10 0 60924 82800.00000 0 20119920.093 4222190.425 15094407.673 10 0 60924 83700.00000 0 18120037.784 4420768.578 17400452.304 10 0 60924 84600.00000 0 15885695.062 4830678.407 19368523.689 10 0 60924 85500.00000 0 13480001.694 5472425.476 20960567.816 10 0 60925 0.00000 0 10970517.401 6354425.828 22145857.210 10 0 60925 900.00000 0 8426600.302 7472472.539 22901571.606 10 0 60925 1800.00000 0 5916700.729 8809743.476 23213223.677 10 0 60925 2700.00000 0 3505707.586 10337351.043 23074925.200 10 0 60925 3600.00000 0 1252459.429 12015409.634 22489488.198 10 0 60925 4500.00000 0 -792479.480 13794576.722 21468360.865 10 0 60925 5400.00000 0 -2588687.617 15618003.697 20031400.091 10 0 60925 6300.00000 0 -4107323.666 17423615.839 18206485.226 10 0 60925 7200.00000 0 -5332075.299 19146627.366 16028980.419 10 0 60925 8100.00000 0 -6259581.605 20722187.794 13541055.408 10 0 60925 9000.00000 0 -6899313.112 22088050.334 10790877.090 10 0 60925 9900.00000 0 -7272915.533 23187151.884 7831686.557 10 0 60925 10800.00000 0 -7413045.476 23969997.600 4720778.449 10 0 60925 11700.00000 0 -7361747.331 24396750.714 1518401.344 10 0 60925 12600.00000 0 -7168439.628 24438940.173 -1713400.308 10 0 60925 13500.00000 0 -6887595.481 24080714.218 -4911981.008 10 0 60925 14400.00000 0 -6576214.706 23319586.640 -8015303.109 10 0 60925 15300.00000 0 -6291194.045 22166643.344 -10963136.631 10 0 60925 16200.00000 0 -6086706.524 20646199.285 -13698226.834 10 0 60925 17100.00000 0 -6011700.767 18794918.632 -16167406.901 10 0 60925 18000.00000 0 -6107626.376 16660433.491 -18322633.944 10 0 60925 18900.00000 0 -6406482.216 14299517.489 -20121928.007 10 0 60925 19800.00000 0 -6929271.109 11775889.172 -21530195.511 10 0 60925 20700.00000 0 -7684927.548 9157735.820 -22519920.731 10 0 60925 21600.00000 0 -8669765.325 6515060.093 -23071711.389 10 0 60925 22500.00000 0 -9867470.164 3916959.485 -23174687.170 10 0 60925 23400.00000 0 -11249639.565 1428951.649 -22826702.924 10 0 60925 24300.00000 0 -12776848.918 -889543.116 -22034401.424 10 0 60925 25200.00000 0 -14400200.672 -2987457.250 -20813093.849 10 0 60925 26100.00000 0 -16063292.600 -4823975.002 -19186469.474 10 0 60925 27000.00000 0 -17704523.245 -6369995.867 -17186139.460 10 0 60925 27900.00000 0 -19259637.873 -7609101.267 -14851023.056 10 0 60925 28800.00000 0 -20664407.650 -8537984.321 -12226587.822 10 0 60925 29700.00000 0 -21857328.654 -9166325.329 -9363958.687 10 0 60925 30600.00000 0 -22782226.163 -9516119.237 -6318913.531 10 0 60925 31500.00000 0 -23390653.364 -9620484.768 -3150785.656 10 0 60925 32400.00000 0 -23643982.331 -9522007.203 78704.423 10 0 60925 33300.00000 0 -23515098.205 -9270686.733 3306663.808 10 0 60925 34200.00000 0 -22989624.564 -8921581.205 6470263.567 10 0 60925 35100.00000 0 -22066628.151 -8532244.990 9507971.136 10 0 60925 36000.00000 0 -20758773.525 -8160074.148 12360753.679 10 0 60925 36900.00000 0 -19091921.689 -7859671.657 14973228.116 10 0 60925 37800.00000 0 -17104190.423 -7680345.089 17294735.093 10 0 60925 38700.00000 0 -14844516.675 -7663842.938 19280316.197 10 0 60925 39600.00000 0 -12370782.070 -7842425.092 20891575.999 10 0 60925 40500.00000 0 -9747580.528 -8237348.345 22097413.285 10 0 60925 41400.00000 0 -7043721.302 -8857829.950 22874608.643 10 0 60925 42300.00000 0 -4329571.244 -9700531.946 23208258.543 10 0 60925 43200.00000 0 -1674346.014 -10749587.083 23092049.022 10 0 60925 44100.00000 0 856538.508 -11977164.691 22528365.071 10 0 60925 45000.00000 0 3203946.310 -13344552.506 21528234.659 10 0 60925 45900.00000 0 5317231.898 -14803709.279 20111109.209 10 0 60925 46800.00000 0 7156091.866 -16299223.736 18304485.042 10 0 60925 47700.00000 0 8691982.532 -17770598.732 16143372.964 10 0 60925 48600.00000 0 9909046.659 -19154766.125 13669625.785 10 0 60925 49500.00000 0 10804512.326 -20388728.260 10931135.944 10 0 60925 50400.00000 0 11388548.629 -21412216.550 7980917.856 10 0 60925 51300.00000 0 11683585.191 -22170256.697 4876091.677 10 0 60925 52200.00000 0 11723124.541 -22615533.601 1676787.167 10 0 60925 53100.00000 0 11550097.417 -22710456.972 -1555011.979 10 0 60925 54000.00000 0 11214830.118 -22428840.750 -4756661.648 10 0 60925 54900.00000 0 10772709.265 -21757125.157 -7866066.076 10 0 60925 55800.00000 0 10281642.165 -20695089.037 -10822878.691 10 0 60925 56700.00000 0 9799419.712 -19256021.198 -13569671.869 10 0 60925 57600.00000 0 9381093.077 -17466341.902 -16053052.908 10 0 60925 58500.00000 0 9076475.102 -15364688.625 -18224704.352 10 0 60925 59400.00000 0 8927872.312 -13000502.539 -20042328.281 10 0 60925 60300.00000 0 8968143.983 -10432173.110 -21470475.875 10 0 60925 61200.00000 0 9219171.162 -7724816.786 -22481245.736 10 0 60925 62100.00000 0 9690801.451 -4947781.188 -23054836.936 10 0 60925 63000.00000 0 10380315.506 -2171977.815 -23179945.440 10 0 60925 63900.00000 0 11272439.243 532846.222 -22853995.523 10 0 60925 64800.00000 0 12339902.819 3100784.206 -22083200.921 10 0 60925 65700.00000 0 13544524.242 5472282.234 -20882453.682 10 0 60925 66600.00000 0 14838773.172 7596383.268 -19275042.071 10 0 60925 67500.00000 0 16167749.824 9432609.133 -17292202.258 10 0 60925 68400.00000 0 17471496.059 10952401.808 -14972511.923 10 0 60925 69300.00000 0 18687541.095 12140063.837 -12361137.269 10 0 60925 70200.00000 0 19753574.050 12993158.879 -9508948.080 10 0 60925 71100.00000 0 20610129.669 13522356.338 -6471518.417 10 0 60925 72000.00000 0 21203172.752 13750727.772 -3308033.179 10 0 60925 72900.00000 0 21486471.004 13712526.239 -80122.867 10 0 60925 73800.00000 0 21423654.994 13451501.937 3149349.466 10 0 60925 74700.00000 0 20989877.359 13018827.262 6317524.003 10 0 60925 75600.00000 0 20173000.697 12470721.077 9362777.294 10 0 60925 76500.00000 0 18974263.876 11865874.522 12225927.551 10 0 60925 77400.00000 0 17408398.908 11262788.857 14851387.799 10 0 60925 78300.00000 0 15503193.989 10717139.004 17188244.075 10 0 60925 79200.00000 0 13298521.676 10279274.802 19191237.833 10 0 60925 80100.00000 0 10844873.687 9991965.499 20821634.033 10 0 60925 81000.00000 0 8201464.101 9888482.152 22047959.110 10 0 60925 81900.00000 0 5433980.381 9991097.826 22846595.857 10 0 60925 82800.00000 0 2612075.795 10310067.587 23202225.201 10 0 60925 83700.00000 0 -193293.133 10843130.006 23108107.851 10 0 60925 84600.00000 0 -2912574.621 11575550.041 22566201.762 10 0 60925 85500.00000 0 -5480264.194 12480700.725 21587114.234 10 0 60926 0.00000 0 -7837373.831 13521158.793 20189890.481 10 0 60926 900.00000 0 -9933628.508 14650268.929 18401642.198 10 0 60926 1800.00000 0 -11729297.888 15814110.098 16257025.218 10 0 60926 2700.00000 0 -13196593.224 16953784.163 13797573.323 10 0 60926 3600.00000 0 -14320569.874 18007930.445 11070902.128 10 0 60926 4500.00000 0 -15099500.527 18915362.293 8129796.787 10 0 60926 5400.00000 0 -15544704.380 19617715.875 5031200.261 10 0 60926 6300.00000 0 -15679840.073 20062000.640 1835120.682 10 0 60926 7200.00000 0 -15539692.332 20202944.652 -1396521.857 10 0 60926 8100.00000 0 -15168503.277 20005036.162 -4601087.496 10 0 60926 9000.00000 0 -14617918.377 19444175.067 -7716425.192 10 0 60926 9900.00000 0 -13944633.223 18508863.882 -10682074.536 10 0 60926 10800.00000 0 -13207839.984 17200886.810 -13440437.640 10 0 60926 11700.00000 0 -12466580.945 15535446.713 -15937898.333 10 0 60926 12600.00000 0 -11777120.699 13540752.318 -18125866.777 10 0 60926 13500.00000 0 -11190447.925 11257070.931 -19961728.985 10 0 60926 14400.00000 0 -10750012.500 8735284.278 -21409682.500 10 0 60926 15300.00000 0 -10489793.943 6035005.965 -22441441.561 10 0 60926 16200.00000 0 -10432783.500 3222337.462 -23036797.588 10 0 60926 17100.00000 0 -10589944.839 367354.846 -23184023.512 10 0 60926 18000.00000 0 -10959698.337 -2458569.996 -22880113.390 10 0 60926 18900.00000 0 -11527951.887 -5185502.746 -22130851.912 10 0 60926 19800.00000 0 -12268678.071 -7747621.186 -20950711.613 10 0 60926 20700.00000 0 -13145014.361 -10085719.408 -19362578.979 10 0 60926 21600.00000 0 -14110840.668 -12149437.285 -17397314.031 10 0 60926 22500.00000 0 -15112768.069 -13899121.938 -15093151.377 10 0 60926 23400.00000 0 -16092454.720 -15307243.343 -12494954.038 10 0 60926 24300.00000 0 -16989150.700 -16359304.931 -9653334.581 10 0 60926 25200.00000 0 -17742363.446 -17054211.461 -6623660.966 10 0 60926 26100.00000 0 -18294529.976 -17404079.523 -3464967.248 10 0 60926 27000.00000 0 -18593581.658 -17433499.881 -238791.336 10 0 60926 27900.00000 0 -18595291.805 -17178284.350 2992036.233 10 0 60926 28800.00000 0 -18265305.713 -16683751.933 6164627.537 10 0 60926 29700.00000 0 -17580766.531 -16002628.607 9217271.060 10 0 60926 30600.00000 0 -16531467.790 -15192651.428 12090638.894 10 0 60926 31500.00000 0 -15120483.871 -14313979.917 14728942.951 10 0 60926 32400.00000 0 -13364252.064 -13426525.434 17081017.305 10 0 60926 33300.00000 0 -11292103.154 -12587312.070 19101305.712 10 0 60926 34200.00000 0 -8945260.771 -11847980.648 20750735.677 10 0 60926 35100.00000 0 -6375351.824 -11252540.671 21997463.112 10 0 60926 36000.00000 0 -3642490.473 -10835463.975 22817474.488 10 0 60926 36900.00000 0 -813015.432 -10620199.051 23195036.299 10 0 60926 37800.00000 0 2043025.725 -10618167.005 23122984.684 10 0 60926 38700.00000 0 4854541.694 -10828279.862 22602850.991 10 0 60926 39600.00000 0 7552102.669 -11237000.145 21644821.980 10 0 60926 40500.00000 0 10070575.137 -11818938.294 20267536.192 10 0 60926 41400.00000 0 12351578.845 -12537962.311 18497720.741 10 0 60926 42300.00000 0 14345665.891 -13348773.004 16369675.470 10 0 60926 43200.00000 0 16014133.374 -14198879.074 13924613.988 10 0 60926 44100.00000 0 17330395.949 -15030889.750 11209873.533 10 0 60926 45000.00000 0 18280862.527 -15785029.540 8278008.033 10 0 60926 45900.00000 0 18865281.646 -16401770.238 5185780.861 10 0 60926 46800.00000 0 19096541.811 -16824470.289 1993075.758 10 0 60926 47700.00000 0 18999935.476 -17001910.920 -1238253.867 10 0 60926 48600.00000 0 18611917.598 -16890622.407 -4445575.686 10 0 60926 49500.00000 0 17978410.678 -16456902.267 -7566686.752 10 0 60926 50400.00000 0 17152727.183 -15678439.593 -10541016.199 10 0 60926 51300.00000 0 16193196.369 -14545475.999 -13310799.148 10 0 60926 52200.00000 0 15160595.027 -13061452.697 -15822199.079 10 0 60926 53100.00000 0 14115490.060 -11243114.589 -18026356.655 10 0 60926 54000.00000 0 13115604.739 -9120064.888 -19880344.437 10 0 60926 54900.00000 0 12213319.599 -6733786.660 -21348008.606 10 0 60926 55800.00000 0 11453413.553 -4136170.093 -22400680.930 10 0 60926 56700.00000 0 10871140.789 -1387605.049 -23017746.649 10 0 60926 57600.00000 0 10490725.109 1445283.275 -23187056.685 10 0 60926 58500.00000 0 10324335.890 4292162.450 -22905175.446 10 0 60926 59400.00000 0 10371589.621 7081680.355 -22177458.699 10 0 60926 60300.00000 0 10619598.872 9744200.769 -21017959.158 10 0 60926 61200.00000 0 11043567.323 12214473.209 -19449160.797 10 0 60926 62100.00000 0 11607906.294 14434125.668 -17501546.359 10 0 60926 63000.00000 0 12267825.882 16353876.023 -15213005.835 10 0 60926 63900.00000 0 12971333.395 17935369.408 -12628097.128 10 0 60926 64800.00000 0 13661554.150 19152564.559 -9797173.244 10 0 60926 65700.00000 0 14279275.625 19992611.136 -6775393.331 10 0 60926 66600.00000 0 14765606.187 20456181.615 -3621637.552 10 0 60926 67500.00000 0 15064634.530 20557244.679 -397347.943 10 0 60926 68400.00000 0 15125975.842 20322290.917 2834680.920 10 0 60926 69300.00000 0 14907095.638 19789045.068 6011536.465 10 0 60926 70200.00000 0 14375311.865 19004720.994 9071422.482 10 0 60926 71100.00000 0 13509389.846 18023894.919 11954868.130 10 0 60926 72000.00000 0 12300662.308 16906088.507 14605887.126 10 0 60926 72900.00000 0 10753627.185 15713165.233 16973064.188 10 0 60926 73800.00000 0 8885998.198 14506650.885 19010547.651 10 0 60926 74700.00000 0 6728206.449 13345091.570 20678929.492 10 0 60926 75600.00000 0 4322374.246 12281560.277 21945996.675 10 0 60926 76500.00000 0 1720804.305 11361416.123 22787340.556 10 0 60926 77400.00000 0 -1015952.652 10620409.187 23186814.029 10 0 60926 78300.00000 0 -3821371.797 10083208.898 23136829.088 10 0 60926 79200.00000 0 -6625475.817 9762415.970 22638490.480 10 0 60926 80100.00000 0 -9357500.664 9658097.627 21701563.974 10 0 60926 81000.00000 0 -11948596.281 9757864.089 20344280.676 10 0 60926 81900.00000 0 -14334452.006 10037482.049 18592981.493 10 0 60926 82800.00000 0 -16457739.479 10461998.669 16481608.605 10 0 60926 83700.00000 0 -18270273.450 10987328.761 14051053.283 10 0 60926 84600.00000 0 -19734802.318 11562238.682 11348371.943 10 0 60926 85500.00000 0 -20826355.246 12130644.075 8425884.625 99